This demonstration page uses our WeatherBlox Daily Observations layout. Learn more.

Left ArrowRight Arrow

31.84235, -102.49876

Hourly Observations for May 5, 2021

Temp ( °F °C ) Dew Point ( °F °C ) Humidity (%) Winds ( mph kmh ) Pressure ( in mb ) Visibility ( mi km ) Precip ( " mm )
12:53 am 00:53 Clear 57 13.9 47 8.3 69 69 ESE 6 9 30.05 1018 10 16 0.00 0.00
1:53 am 01:53 Clear 57 13.9 47 8.3 69 69 ESE 8 13 30.04 1017 10 16 0.00 0.00
2:53 am 02:53 Clear 56 13.3 47 8.3 72 72 SE 7 11 30.03 1017 10 16 0.00 0.00
3:53 am 03:53 Clear 55 12.8 47 8.3 74 74 SE 9 15 30.02 1017 10 16 0.00 0.00
4:53 am 04:53 Clear 54 12.2 47 8.3 77 77 SSE 6 9 30.03 1017 10 16 0.00 0.00
5:53 am 05:53 Clear 53 11.7 47 8.3 80 80 SE 6 9 30.03 1017 10 16 0.00 0.00
6:53 am 06:53 Clear 53 11.7 47 8.3 80 80 SE 9 15 30.06 1018 10 16 0.00 0.00
7:53 am 07:53 Sunny 55 12.8 48 8.9 77 77 SE 10 17 30.09 1019 10 16 0.00 0.00
8:53 am 08:53 Sunny 59 15 49 9.4 69 69 SSE 15 24 30.12 1020 10 16 0.00 0.00
9:53 am 09:53 Sunny 64 17.8 49 9.4 58 58 SSE 15 24 30.12 1020 10 16 0.00 0.00
10:53 am 10:53 Sunny 67 19.4 49 9.4 53 53 S 15 24 30.11 1020 10 16 0.00 0.00
11:53 am 11:53 Sunny 71 21.7 49 9.4 46 46 SSE 16 26 30.09 1019 10 16 0.00 0.00
12:53 pm 12:53 Sunny 75 23.9 47 8.3 37 37 S 16 26 30.06 1018 10 16 0.00 0.00
1:53 pm 13:53 Sunny 78 25.6 46 7.8 32 32 S 15 24 30.03 1017 10 16 0.00 0.00
2:53 pm 14:53 Sunny 80 26.7 44 6.7 28 28 S 15 24 30.00 1016 10 16 0.00 0.00
3:53 pm 15:53 undefined 82 27.8 43 6.1 25 25 S 17 28 29.98 1015 10 16 0.00 0.00
4:53 pm 16:53 undefined 82 27.8 39 3.9 22 22 S 14 22 29.95 1014 10 16 0.00 0.00
5:53 pm 17:53 undefined 83 28.3 37 2.8 19 19 S 16 26 29.94 1014 10 16 0.00 0.00
6:53 pm 18:53 undefined 82 27.8 35 1.7 18 18 S 14 22 29.94 1014 10 16 0.00 0.00
7:53 pm 19:53 Sunny 80 26.7 35 1.7 20 20 S 12 19 29.94 1014 10 16 0.00 0.00
8:53 pm 20:53 undefined 77 25 37 2.8 24 24 SSE 9 15 29.95 1014 10 16 0.00 0.00
9:53 pm 21:53 undefined 73 22.8 40 4.4 30 30 SSE 12 19 29.97 1015 10 16 0.00 0.00
10:53 pm 22:53 Clear 73 22.8 40 4.4 30 30 S 14 22 29.99 1016 10 16 0.00 0.00
11:53 pm 23:53 Clear 72 22.2 42 5.6 34 34 S 12 19 29.98 1015 10 16 0.00 0.00

Powered by AerisWeather